GFSFLT1_sfc_thetae_057.txt.gz
Theta_e
327 329 331 329 333 338 339 339 339 339 340 341 343 343 344 344 343 341 341 340 336 337 338 343 345 348 351 351 349 348 347 347 346
325 328 330 326 331 335 339 339 339 338 340 342 343 344 345 344 344 343 341 340 340 338 339 344 345 348 350 352 350 348 347 347 347
324 327 329 329 329 334 337 339 339 340 340 341 343 344 345 345 344 344 344 341 338 338 338 342 346 347 349 352 352 350 348 347 348
324 326 328 328 330 334 336 338 339 340 339 340 342 344 345 344 345 345 344 342 342 342 341 340 343 348 349 351 352 351 348 348 349
325 327 328 329 330 333 335 336 339 340 340 339 341 344 345 345 345 346 347 346 342 341 343 343 344 345 348 350 352 352 350 348 350
323 327 328 328 330 332 334 335 338 339 341 341 341 342 345 345 344 344 343 348 350 345 342 342 342 348 348 348 350 351 351 350 349
314 326 327 328 330 333 334 335 336 339 341 343 343 343 343 345 346 346 345 344 344 349 350 345 343 345 347 350 350 351 352 351 350
310 321 326 329 331 333 334 335 335 338 341 343 344 343 343 344 346 348 349 348 346 345 346 350 348 346 346 350 352 353 352 352 351
313 323 328 331 333 333 333 334 335 336 339 342 344 344 344 345 345 347 349 350 349 348 346 346 349 347 346 347 351 342 340 349 352
315 325 328 331 333 333 334 335 335 335 337 341 344 344 346 346 347 346 348 350 351 351 349 348 345 347 347 347 348 334 335 340 352
322 322 329 332 334 334 335 336 336 336 338 339 342 344 345 347 348 349 349 350 351 352 353 351 349 347 348 348 348 333 331 336 350
324 328 330 326 331 333 333 335 336 335 336 337 341 343 345 347 349 349 351 351 351 353 353 354 354 353 351 350 351 329 328 332 348
321 327 332 337 335 332 330 331 336 335 335 335 336 342 345 348 350 350 350 352 353 353 355 354 356 356 357 347 352 332 325 330 349
315 320 324 338 342 345 343 332 336 334 335 335 337 338 340 344 350 351 352 353 354 355 354 355 355 355 357 357 353 353 324 322 349
309 311 318 324 329 334 342 348 338 336 337 336 342 341 340 342 343 348 352 352 353 354 354 353 353 353 354 356 357 334 324 321 324
307 308 311 319 320 322 329 339 346 345 345 347 344 343 343 344 346 346 347 349 350 352 352 351 351 352 352 353 355 356 324 320 320
306 306 308 311 320 319 321 326 336 343 346 345 343 343 345 343 345 346 349 350 350 350 351 351 351 351 352 352 352 354 352 337 332
305 305 306 309 311 319 318 321 324 333 343 343 341 340 342 343 345 342 344 342 337 349 352 345 352 353 354 353 352 353 341 343 348
305 305 307 310 311 317 319 319 321 325 335 339 339 338 338 339 342 345 343 334 323 304 303 302 302 305 328 350 329 320 312 310 311
307 305 307 309 310 315 316 317 318 320 327 332 337 336 338 341 339 344 336 333 332 331 316 301 298 298 303 304 319 305 305 304 303

GFSFLT1_sfc_thetae_060.txt.gz
Theta_e
328 331 335 336 337 337 337 338 339 339 340 339 340 341 342 343 343 341 342 341 341 340 339 342 347 350 353 354 354 352 352 351 350
325 328 332 334 336 338 339 338 339 339 339 340 341 341 342 343 343 342 342 342 342 342 342 343 346 348 351 353 354 353 352 350 351
323 327 329 332 335 335 339 340 340 340 340 340 341 342 343 343 344 344 344 342 341 342 341 344 346 348 349 351 353 353 352 351 352
323 325 328 330 331 334 337 341 341 340 339 340 341 343 343 344 344 345 345 342 342 342 342 341 344 348 349 350 353 354 352 352 353
324 326 328 330 331 330 334 338 340 340 339 340 341 343 344 344 345 345 344 344 343 343 342 342 344 347 349 351 353 354 352 351 353
322 326 327 329 330 330 331 336 339 339 339 339 342 343 343 344 344 344 344 344 344 345 345 345 345 345 346 349 351 353 354 354 352
311 323 326 328 328 330 331 335 337 339 339 340 341 342 343 343 344 344 345 346 346 344 344 344 345 347 348 349 351 352 354 354 353
310 311 324 327 328 329 332 334 337 339 340 341 341 340 343 343 344 345 345 346 348 350 348 345 345 345 346 348 351 351 352 354 354
314 310 313 326 328 329 331 334 336 339 340 341 342 340 340 344 345 346 345 345 344 345 348 350 350 347 346 346 348 339 337 349 353
320 321 313 319 327 330 332 335 336 338 340 342 342 342 342 343 345 346 347 348 347 346 344 345 348 349 349 348 348 333 333 338 352
320 325 323 325 329 332 334 336 336 338 341 342 342 342 343 344 345 345 347 348 348 349 349 347 345 346 348 349 348 331 329 334 351
315 325 332 328 332 333 335 336 337 337 338 340 342 342 343 345 346 346 346 346 348 350 351 350 349 349 348 348 349 328 327 331 347
313 323 337 333 331 332 332 334 336 335 336 338 340 343 345 347 348 348 348 348 348 351 352 352 353 352 353 343 350 330 324 329 349
312 318 322 337 342 341 334 335 336 334 335 336 340 344 346 348 349 349 351 352 353 352 352 353 354 355 356 357 351 351 324 321 348
310 311 317 323 331 337 343 338 335 334 335 338 339 343 345 347 349 351 351 351 352 354 353 353 353 354 355 357 359 333 325 321 323
310 312 315 320 322 328 333 345 346 344 344 343 343 340 341 343 348 350 352 352 352 352 354 353 353 353 353 355 358 359 324 320 320
307 310 312 317 319 320 321 326 334 341 344 345 347 346 346 347 345 344 347 352 353 353 352 352 352 352 352 354 355 357 358 344 334
306 308 310 313 314 314 316 320 322 326 334 343 342 342 345 348 349 347 349 349 346 351 354 345 352 353 354 353 353 354 341 343 352
306 307 309 311 312 313 314 316 317 321 325 332 338 340 342 342 347 350 348 344 335 305 306 303 302 305 324 354 328 321 313 311 311
308 308 308 309 310 311 313 314 316 320 323 325 328 331 337 341 339 347 345 341 338 338 320 302 300 301 302 302 317 309 306 305 304

GFSFLT1_sfc_thetae_063.txt.gz
Theta_e
337 338 340 340 341 342 344 346 348 349 350 351 353 353 355 357 358 351 351 355 351 349 349 351 359 360 362 363 365 364 364 361 360
333 337 339 340 341 342 344 346 348 348 350 352 352 352 354 355 356 356 353 357 357 351 356 351 355 358 359 361 363 364 365 361 361
329 335 337 341 342 344 346 346 348 350 351 352 352 352 353 353 355 356 356 356 356 357 355 355 353 356 357 359 361 363 364 360 363
326 330 334 338 342 346 346 346 348 348 349 351 351 352 353 354 354 354 354 353 354 356 356 356 356 357 357 358 358 360 362 361 360
325 330 332 336 339 343 345 347 347 347 348 348 350 352 353 353 355 356 353 354 354 355 355 356 356 357 358 358 358 360 360 358 357
324 331 333 335 337 341 344 347 348 348 348 347 349 351 350 352 354 353 355 355 356 355 356 356 355 356 355 356 357 358 360 360 359
317 328 332 335 336 338 343 346 348 349 349 347 348 349 350 352 353 355 355 357 357 355 356 356 356 356 357 357 357 357 357 358 360
319 319 331 335 335 339 341 343 348 349 350 350 350 350 350 352 354 356 357 357 357 355 356 357 358 358 357 356 355 353 357 358 360
325 327 325 332 337 340 341 341 345 348 349 349 351 351 351 354 355 356 356 357 357 357 355 355 356 355 356 355 353 339 337 351 356
321 326 331 331 331 341 342 341 345 346 349 351 350 351 352 354 355 355 356 357 357 358 358 357 357 355 355 356 357 333 332 337 355
319 323 328 334 337 331 341 342 342 348 349 350 350 350 351 354 355 355 356 356 355 357 355 357 358 357 358 357 358 332 329 333 353
318 322 329 336 342 330 341 342 347 348 349 349 349 350 351 352 354 355 356 355 356 357 355 354 355 356 358 358 359 329 327 333 352
318 325 332 342 340 337 339 344 344 348 346 349 349 351 352 354 355 355 355 357 358 359 357 356 355 355 357 347 359 332 324 331 351
322 328 334 345 342 341 346 348 348 347 349 348 351 351 353 356 357 356 358 358 360 360 358 359 358 358 360 359 355 356 323 320 353
317 322 328 339 343 342 344 348 348 348 349 353 356 356 354 357 358 356 355 360 359 359 359 359 359 357 358 359 363 335 327 320 322
311 313 315 322 330 332 337 349 348 346 350 352 355 356 357 357 359 357 360 359 358 356 358 355 356 355 355 356 360 364 326 319 318
312 311 312 314 318 319 324 330 334 340 351 353 351 353 354 355 355 356 358 356 356 355 355 355 355 355 355 357 360 362 364 356 341
314 315 314 313 313 314 317 323 327 328 336 353 353 351 350 351 351 354 355 357 355 356 361 350 356 357 358 357 358 359 346 348 363
312 315 316 313 313 313 315 318 321 325 327 332 344 348 353 349 354 354 353 352 350 308 311 307 306 308 331 358 331 319 314 310 311
311 314 317 316 316 316 316 318 321 324 327 326 327 332 339 343 342 355 350 353 352 351 326 304 303 304 304 305 316 307 306 306 303

GFSFLT1_sfc_thetae_069.txt.gz
Theta_e
338 339 342 344 345 345 348 350 354 356 359 361 364 363 363 362 365 353 354 362 353 350 348 351 372 365 363 364 365 364 369 362 360
334 338 340 343 345 346 347 351 355 357 360 363 365 362 364 366 364 359 354 364 367 357 362 354 359 361 364 365 365 366 372 360 365
331 338 340 341 344 346 348 349 352 358 360 364 365 363 364 364 365 365 362 365 368 364 368 366 361 362 360 363 366 367 373 366 368
330 335 338 341 343 346 348 350 350 352 357 363 362 363 365 364 363 363 362 363 367 368 370 372 368 366 363 362 363 367 371 371 366
326 331 336 340 342 346 347 349 350 351 352 354 360 362 365 364 366 364 362 359 365 369 370 372 372 370 367 363 362 368 368 362 362
325 328 332 337 340 345 347 348 353 352 352 352 355 361 360 363 365 364 362 365 366 367 369 370 368 370 369 367 364 365 367 367 364
323 327 330 333 337 341 347 351 356 358 353 353 354 356 356 361 364 365 364 367 368 368 371 370 370 372 371 369 366 364 362 364 367
324 325 327 331 333 336 345 354 358 359 356 359 356 358 358 360 365 367 368 366 368 368 370 370 372 372 370 369 365 359 363 364 365
325 328 329 330 333 336 340 345 357 360 359 360 360 360 359 362 366 367 367 366 367 369 369 370 371 370 369 368 359 342 338 354 360
328 329 330 334 336 339 342 343 354 357 360 361 362 363 363 364 367 367 368 367 367 368 369 370 371 370 370 369 370 336 333 338 359
329 331 333 335 337 338 340 343 345 355 357 361 363 362 366 365 368 367 369 369 368 369 369 369 370 370 371 371 369 337 329 334 359
330 332 335 338 340 340 343 343 344 354 356 361 361 363 365 366 367 368 370 368 368 370 369 369 370 372 372 372 370 332 328 335 356
331 335 339 340 344 346 345 346 346 349 355 361 360 364 364 367 369 369 369 370 371 371 371 369 363 367 371 359 372 336 326 335 356
329 332 338 344 347 351 352 350 349 351 353 355 363 362 365 369 369 370 372 373 373 372 369 366 369 369 371 372 367 368 325 322 360
325 328 337 343 348 354 356 354 359 357 357 361 369 366 366 368 370 366 365 372 372 373 371 370 371 368 367 363 372 341 326 320 326
322 323 327 336 340 342 344 354 356 355 369 367 370 367 367 368 369 368 369 369 370 365 370 360 361 358 356 356 359 364 327 318 320
317 321 322 324 329 330 329 334 341 354 361 368 365 365 367 367 367 366 369 364 364 360 358 358 355 356 354 354 355 356 361 352 338
316 318 320 322 323 322 322 329 331 337 336 353 362 363 361 364 361 362 363 363 361 360 363 352 358 354 354 351 353 355 345 349 363
316 318 320 320 322 322 321 323 324 327 330 334 354 357 358 357 358 359 358 358 356 314 322 313 314 314 335 356 321 312 313 312 312
315 318 318 319 319 320 321 320 321 324 325 330 337 348 360 357 352 358 358 359 357 355 335 314 310 312 313 314 313 310 311 308 306

GFSFLT1_sfc_thetae_072.txt.gz
Theta_e
331 337 342 341 344 345 346 347 348 347 353 353 354 357 352 356 362 354 357 365 355 357 351 356 363 364 367 370 367 368 369 368 365
329 333 342 342 344 346 348 348 349 349 351 354 356 355 356 352 359 360 354 365 368 358 364 362 362 364 367 367 367 367 367 364 364
331 333 337 343 344 346 349 350 352 353 354 354 357 355 358 355 354 357 360 356 366 363 367 365 364 365 365 366 369 369 366 364 363
331 331 338 341 344 347 349 351 351 353 354 355 357 359 357 357 354 355 354 356 356 361 363 374 369 369 367 366 365 368 368 365 363
327 331 336 335 336 346 348 349 351 352 353 357 359 360 359 357 360 357 354 351 356 364 362 367 375 368 370 366 365 366 365 362 359
325 334 332 328 328 332 346 348 350 352 353 353 359 361 360 359 358 359 358 352 357 359 362 367 364 370 364 366 363 363 364 364 361
323 330 331 334 334 340 345 349 350 352 352 354 355 359 359 359 359 358 358 360 354 361 362 361 366 365 366 365 364 362 361 363 363
327 329 330 332 335 342 345 350 352 353 354 353 355 356 358 358 361 361 361 360 359 354 362 363 365 365 365 365 365 362 361 360 362
329 331 333 335 339 339 345 348 352 353 354 354 356 355 356 359 361 361 361 360 360 360 359 362 364 364 364 364 363 345 340 353 357
322 329 332 335 336 339 344 349 353 355 356 357 356 356 357 359 360 360 360 361 361 361 360 361 363 363 365 364 365 339 334 340 356
320 328 331 333 335 338 340 341 348 358 358 357 359 357 358 358 359 359 361 361 360 361 361 361 362 363 364 365 365 339 332 334 352
321 326 331 334 335 337 345 346 345 350 358 357 356 359 358 359 359 359 361 360 361 361 361 361 361 363 365 364 364 335 333 333 350
329 332 334 336 338 339 341 347 347 345 353 359 356 356 359 363 361 362 361 362 362 362 362 361 362 363 365 356 365 338 328 333 355
327 328 331 336 341 343 348 356 355 351 348 355 360 359 363 361 366 363 364 365 365 363 363 363 362 362 364 367 363 363 326 322 356
325 326 327 333 340 343 345 344 344 355 350 359 365 364 360 365 366 364 365 365 366 366 364 363 361 362 362 364 367 341 328 321 327
321 324 326 326 329 335 335 337 343 347 358 363 365 366 362 365 366 365 365 364 365 364 365 362 360 360 359 362 364 367 329 321 320
319 320 322 324 326 327 327 330 332 337 339 343 364 365 361 365 365 362 364 365 365 364 362 362 360 359 360 360 360 361 365 344 333
317 318 320 322 321 321 321 324 327 331 334 339 367 364 362 363 363 361 363 362 363 363 364 359 360 359 358 358 356 355 344 349 354
316 317 319 319 320 319 320 321 323 328 331 334 342 363 362 360 360 361 361 359 355 315 326 318 319 327 343 342 319 309 307 310 321
315 315 316 318 316 317 318 318 319 322 326 329 331 336 339 358 351 358 358 359 359 354 334 309 307 313 316 326 316 306 305 306 307

GFSFLT1_sfc_thetae_075.txt.gz
Theta_e
326 332 333 337 337 337 339 339 341 342 342 346 346 343 343 347 345 344 347 351 347 349 350 349 350 357 354 353 354 353 355 353 354
326 332 336 338 338 338 339 340 340 344 343 344 347 346 342 344 351 342 345 348 351 349 346 350 351 356 357 356 356 356 354 352 353
329 333 334 337 335 339 340 341 341 342 346 344 347 348 345 344 348 350 347 348 352 351 347 349 353 354 358 356 355 354 355 351 354
328 329 330 333 335 338 342 342 343 342 347 346 347 347 349 343 343 349 349 346 347 352 350 356 357 356 356 356 356 355 354 350 353
329 327 328 329 336 340 339 343 343 343 346 348 348 348 350 349 343 347 349 347 344 349 350 352 356 358 357 356 354 355 354 353 353
328 329 331 331 332 334 334 341 344 344 345 348 350 350 348 350 349 343 346 346 345 344 352 351 355 356 355 354 355 353 355 354 353
320 332 332 332 333 336 338 335 343 345 345 349 350 351 350 349 349 350 344 345 344 348 353 355 354 357 354 357 354 353 354 355 354
317 327 329 327 328 330 335 338 334 335 347 348 351 352 352 351 351 351 352 349 347 343 351 353 355 355 357 356 357 357 352 354 355
315 315 327 330 331 325 334 337 338 334 334 348 349 353 353 354 353 352 351 352 352 345 347 352 352 354 355 356 359 345 343 350 352
313 314 316 326 330 333 337 333 333 331 332 346 349 349 353 354 354 354 353 353 352 351 345 349 355 354 356 355 357 339 337 343 352
309 322 325 328 328 331 336 339 343 343 343 347 348 348 350 353 354 353 354 354 353 352 351 346 347 355 356 356 357 339 333 337 349
315 319 322 326 330 331 332 338 340 340 340 342 346 348 349 353 354 353 354 353 353 353 353 353 350 352 355 356 357 334 333 332 338
312 312 314 325 330 336 339 336 340 344 343 341 343 350 351 353 353 354 354 353 354 354 354 354 355 353 355 350 357 336 330 332 349
321 323 324 324 326 332 330 331 333 338 341 344 347 352 353 354 354 353 355 355 355 355 354 354 354 354 356 356 356 356 328 323 353
318 320 322 323 323 326 328 327 327 326 329 333 338 355 352 353 355 355 356 356 356 355 355 353 353 353 354 356 358 338 330 322 326
314 318 319 320 321 321 322 322 323 323 326 329 331 335 353 354 356 355 356 356 356 355 356 354 353 352 352 354 357 360 329 322 321
314 314 317 319 318 317 317 319 320 322 324 327 329 335 355 353 354 356 356 358 358 357 356 355 354 353 353 354 355 357 361 344 332
314 314 315 317 315 315 315 318 318 320 321 324 325 329 355 354 356 353 357 358 358 359 359 355 357 356 356 354 353 354 346 349 352
314 311 312 314 314 312 314 313 314 317 319 321 324 328 345 352 356 355 356 355 348 315 325 322 321 325 345 353 326 325 321 316 320
310 308 308 311 311 311 311 311 313 315 317 319 321 323 323 335 335 353 355 355 353 349 333 313 307 310 320 315 328 306 309 309 309

GFSFLT1_sfc_thetae_078.txt.gz
Theta_e
326 325 331 331 334 336 334 336 336 341 343 341 341 342 344 342 341 340 343 345 347 348 348 349 352 353 351 350 350 351 351 347 350
322 324 329 331 335 337 336 336 336 337 343 342 342 341 341 344 345 339 342 346 346 348 348 348 349 353 350 349 349 349 350 349 349
322 324 330 333 336 337 338 338 338 338 339 343 343 342 340 341 344 345 339 344 346 346 347 346 347 353 352 350 350 352 349 348 349
326 325 330 335 337 338 339 339 339 339 338 340 344 344 341 340 341 346 341 342 344 349 345 346 348 350 353 352 351 349 350 348 348
319 329 331 336 338 338 339 338 339 339 341 339 343 345 344 341 340 343 346 345 342 348 347 351 351 350 354 352 352 351 350 348 349
322 328 333 336 338 337 340 340 339 339 342 342 343 345 345 344 339 340 344 347 345 341 348 348 353 352 352 353 352 351 352 351 349
326 328 330 328 328 330 333 335 334 337 340 345 345 345 345 345 344 340 340 346 344 344 343 346 349 353 352 352 353 352 352 351 349
317 321 327 330 331 332 331 330 335 336 341 344 346 345 344 345 347 346 340 340 345 343 343 346 349 351 353 353 353 353 351 351 350
317 321 325 331 333 333 333 333 337 336 337 344 347 346 346 345 347 348 346 341 341 342 343 347 348 350 352 351 355 341 340 348 350
319 321 323 325 329 331 333 336 337 338 335 337 344 347 347 348 346 347 348 348 343 342 340 341 347 350 352 352 354 336 336 341 350
316 321 319 322 330 334 338 338 338 340 342 343 344 345 349 350 350 348 348 348 349 347 346 340 343 347 348 352 353 335 333 337 350
317 318 317 326 335 332 333 334 340 342 341 342 342 342 347 352 352 351 350 348 348 350 349 346 342 347 351 349 350 331 330 334 347
315 321 321 323 329 330 329 329 334 335 336 337 337 339 342 348 353 352 351 351 351 351 351 350 348 345 346 346 353 332 328 332 350
313 318 320 322 324 324 324 325 327 328 329 327 330 334 340 344 351 353 353 353 353 352 352 351 350 349 348 348 350 351 325 324 353
311 314 318 320 319 320 320 320 321 321 324 326 327 330 332 338 351 353 354 353 353 353 352 350 349 350 351 352 353 335 327 322 326
309 313 316 318 317 318 318 319 319 317 320 322 324 326 330 337 351 353 353 352 352 351 352 350 349 349 349 350 353 354 326 321 321
308 313 314 316 314 313 314 314 315 316 318 319 320 322 326 330 348 350 351 353 354 352 351 351 350 349 349 350 351 353 356 342 332
308 311 310 313 312 310 311 311 311 314 315 316 317 321 324 325 350 349 351 352 353 353 354 350 352 352 352 350 350 351 342 345 351
308 306 308 308 309 309 309 309 310 312 312 314 314 318 324 322 328 351 354 352 353 316 324 321 319 323 341 353 334 324 318 316 316
309 304 306 306 307 307 308 309 308 308 310 311 313 315 321 323 325 336 352 352 353 350 331 313 311 312 314 317 330 311 310 313 309

GFSFLT1_sfc_thetae_084.txt.gz
Theta_e
327 328 331 333 335 331 334 337 338 339 338 340 341 342 341 341 340 342 342 343 344 346 347 350 353 352 354 353 352 353 351 352 352
322 326 331 332 336 335 332 336 337 339 338 340 341 342 342 340 339 340 341 343 346 347 348 350 353 354 354 353 351 352 352 351 351
315 319 329 333 335 335 334 334 338 339 340 339 341 343 343 341 339 340 341 343 344 347 349 349 351 353 354 353 353 352 352 352 351
320 324 322 327 334 336 336 334 337 338 339 339 340 342 343 343 340 339 339 341 345 347 349 349 349 351 352 352 351 352 351 351 352
321 327 328 323 328 335 336 334 335 336 338 339 340 341 343 343 343 342 339 339 341 346 348 348 349 348 352 352 352 352 351 350 351
324 326 329 329 328 330 334 334 334 335 338 339 340 341 341 342 343 342 342 340 340 343 345 347 348 349 348 351 352 351 351 352 352
316 317 325 329 329 331 331 335 335 335 336 341 341 341 340 340 340 341 343 344 342 341 343 345 347 348 349 350 352 353 352 351 351
313 315 322 331 331 332 334 334 333 338 337 338 341 341 340 339 340 341 341 342 344 344 343 344 345 348 351 351 352 351 352 353 352
308 315 320 328 328 328 331 335 336 336 338 339 339 341 341 342 341 341 340 340 341 344 344 344 345 345 348 351 352 339 338 349 352
305 309 317 323 325 324 323 328 337 336 337 339 341 339 341 343 343 342 341 340 340 341 343 344 343 344 346 348 351 334 334 339 353
302 304 308 318 323 323 322 325 329 333 339 338 340 342 342 343 344 343 344 343 339 339 341 342 343 343 345 345 347 332 330 335 350
300 302 305 311 321 324 322 322 326 328 328 329 329 329 334 341 345 344 344 343 343 341 340 340 341 343 344 345 345 327 328 333 349
300 302 303 304 311 322 321 320 322 324 323 323 322 324 327 331 333 339 344 345 345 345 342 341 341 341 342 337 344 327 325 330 348
300 301 302 303 306 317 319 319 320 319 319 318 321 323 325 328 331 333 338 347 347 347 346 346 344 343 343 342 339 342 321 322 347
298 299 300 302 302 308 319 318 315 315 315 318 319 321 324 326 327 331 335 340 349 347 346 345 346 345 345 346 345 328 321 319 324
297 299 300 301 302 306 317 317 314 311 314 316 318 319 320 324 326 329 330 331 337 348 348 346 346 346 346 347 349 347 322 317 319
297 300 300 302 302 303 311 316 313 313 313 315 315 315 316 320 323 325 328 331 336 345 350 347 346 346 347 348 349 350 350 337 328
299 301 303 303 302 303 310 313 311 313 312 311 310 311 313 316 319 322 325 329 333 340 352 348 349 349 350 349 348 350 339 339 344
300 301 304 304 303 306 310 309 309 310 311 310 308 308 310 311 313 317 322 327 331 321 317 313 314 316 338 350 329 321 312 311 312
303 305 306 303 304 309 307 306 306 307 308 307 307 306 307 309 310 317 319 324 328 330 331 311 307 306 307 308 329 308 308 307 308

GFSFLT1_sfc_thetae_087.txt.gz
Theta_e
333 337 339 339 341 340 341 344 345 347 350 353 351 352 356 357 357 353 353 357 354 354 355 357 364 363 364 363 363 364 364 358 360
326 331 336 339 340 341 340 343 347 348 351 353 353 351 356 356 355 355 354 359 359 355 360 358 362 362 363 364 363 363 364 357 361
328 331 334 334 339 341 341 343 346 347 351 351 354 352 353 352 353 354 355 356 357 358 359 360 360 362 363 363 363 362 363 360 362
327 332 334 336 336 341 343 342 344 346 347 349 349 350 354 355 352 351 353 351 354 357 360 361 361 362 362 362 363 364 362 361 361
323 331 336 337 333 335 342 343 342 344 345 346 348 352 354 352 353 352 350 351 352 355 357 361 362 362 362 362 362 363 362 360 358
324 328 332 337 339 339 339 343 343 343 344 345 347 349 349 352 351 351 350 351 352 353 356 358 359 362 361 361 361 362 363 362 361
322 324 326 329 329 333 340 342 344 343 344 346 348 348 347 350 352 354 351 354 353 352 353 356 358 359 359 360 362 361 361 361 361
317 313 319 324 324 324 327 334 343 343 343 347 347 348 347 348 353 353 354 355 355 352 353 354 357 356 356 358 358 358 360 360 360
309 308 309 316 324 323 321 323 330 343 344 344 348 348 347 350 350 351 352 353 354 354 353 353 355 354 355 356 353 340 339 354 360
304 303 305 307 313 323 323 321 324 332 345 346 346 347 349 349 351 349 350 349 351 352 353 354 352 354 354 356 358 333 334 339 359
304 304 303 306 309 311 324 324 321 326 334 340 344 346 347 348 350 349 350 351 349 352 351 352 354 353 354 355 354 332 330 335 357
303 305 305 305 308 309 314 325 324 322 325 329 332 336 340 340 346 349 350 349 350 350 349 350 351 352 355 354 355 328 327 334 353
303 304 305 305 306 308 309 318 325 321 322 324 325 327 330 332 334 336 344 351 352 352 350 349 348 349 353 344 355 332 323 332 348
304 303 304 306 306 307 309 311 323 322 320 319 322 327 330 331 332 334 336 342 346 350 351 350 350 350 352 353 351 352 322 320 351
302 303 303 303 304 306 309 312 316 321 319 321 321 322 329 333 333 337 340 342 345 347 348 347 348 348 349 351 355 332 326 318 322
302 303 304 305 305 306 309 311 315 319 322 321 319 318 320 325 332 334 337 338 341 344 344 346 345 346 346 349 354 354 322 317 317
302 303 303 305 306 307 309 311 314 320 322 321 318 314 315 318 323 327 331 333 338 339 342 344 345 345 346 348 352 355 356 346 335
301 303 304 305 305 307 310 312 311 318 321 319 315 314 312 315 318 321 325 329 331 337 342 335 345 347 349 349 352 355 343 345 353
301 303 304 304 305 306 310 313 313 317 319 317 315 313 313 311 312 317 321 324 326 316 313 313 308 306 324 353 334 319 313 314 312
301 303 303 302 305 309 312 311 313 318 316 314 313 312 313 313 312 315 318 322 322 323 325 312 309 306 304 309 324 309 308 307 308

GFSFLT1_sfc_thetae_093.txt.gz
Theta_e
338 340 341 341 344 344 346 347 350 350 361 362 360 359 365 368 367 359 356 359 357 353 352 356 369 363 363 363 363 362 365 360 358
337 337 342 342 343 346 347 348 353 352 360 366 363 361 366 367 368 366 361 364 364 358 363 356 363 361 364 362 363 363 369 362 362
334 338 340 341 342 346 348 349 351 354 356 362 361 362 362 361 363 365 365 364 362 363 363 362 355 362 360 363 363 363 366 363 365
332 334 336 341 344 345 348 351 350 351 354 357 359 361 364 365 363 362 365 362 362 363 363 366 362 358 365 362 362 365 366 367 364
326 329 332 336 340 344 345 346 347 350 351 353 356 360 363 361 363 364 361 362 362 364 365 367 365 364 364 364 363 369 363 360 357
324 326 328 332 334 335 338 343 347 346 349 350 354 357 358 360 361 361 362 364 365 365 367 367 361 367 366 365 363 363 366 364 361
326 327 328 327 329 332 334 337 340 341 344 349 351 354 355 361 361 363 361 365 368 366 368 368 366 368 368 367 365 365 362 364 366
322 323 324 325 326 329 333 333 333 335 340 345 353 351 355 358 363 365 365 367 368 365 367 366 369 367 366 365 363 358 366 364 365
318 320 321 321 323 324 326 332 333 329 333 337 349 348 349 356 357 365 364 364 365 368 367 368 369 367 365 362 353 341 339 356 363
315 317 318 320 321 321 323 324 330 332 329 335 339 341 338 340 357 356 359 363 363 365 366 365 367 367 366 365 364 335 334 340 360
314 316 316 317 318 320 322 323 322 327 332 332 331 332 333 336 339 346 353 357 358 361 362 364 366 365 366 367 364 335 329 335 362
313 314 316 317 318 318 321 322 323 324 326 331 330 330 330 331 337 340 341 349 354 355 358 360 360 362 363 367 366 331 328 334 351
312 313 314 315 316 317 319 320 322 322 323 324 328 329 331 331 331 335 341 343 345 354 361 359 356 356 360 350 364 338 325 332 352
312 313 313 315 315 315 317 320 321 320 322 323 325 328 329 332 334 333 334 341 348 351 354 358 359 359 362 362 359 362 324 321 356
310 311 312 313 313 314 316 318 319 320 321 324 327 329 328 329 331 331 330 337 342 346 350 351 353 357 355 360 363 338 333 320 323
309 310 311 312 312 314 316 317 319 318 322 325 324 326 329 328 329 329 330 330 333 335 345 343 345 348 352 354 354 354 329 323 319
308 309 309 311 312 311 312 314 315 317 319 322 324 323 326 329 326 326 327 326 327 327 331 335 337 338 340 351 354 355 355 361 346
307 308 309 308 307 308 310 313 314 315 319 320 321 322 322 325 325 324 324 325 324 325 329 324 327 331 332 333 339 346 321 321 334
307 305 305 305 306 307 309 310 311 314 315 317 319 320 321 321 322 322 321 320 320 312 309 306 305 304 314 331 318 311 306 304 306
306 305 306 305 303 304 305 307 309 314 311 310 314 317 318 320 318 320 320 320 318 317 318 307 305 302 303 302 307 302 300 301 301

GFSFLT1_sfc_thetae_096.txt.gz
Theta_e
338 331 333 339 342 345 344 345 343 348 355 357 359 361 362 365 367 362 358 355 361 359 359 355 358 365 367 370 368 367 368 364 364
335 339 340 334 340 345 345 346 347 349 354 358 359 360 363 365 366 366 363 366 368 361 365 353 354 362 365 365 365 366 365 363 364
336 338 341 339 337 338 340 343 345 354 356 358 360 360 362 363 365 366 367 372 366 365 363 353 350 351 362 363 364 365 364 364 362
331 334 336 339 336 335 334 347 349 352 357 361 361 362 363 362 363 365 367 365 366 368 365 362 353 352 355 362 363 365 367 364 359
328 330 334 336 338 339 342 345 345 346 347 353 360 362 364 363 364 364 364 364 365 366 366 365 359 354 357 361 365 365 364 363 360
327 328 329 332 334 336 339 340 340 341 345 349 348 357 361 362 362 363 363 365 366 367 366 366 364 366 364 364 363 364 365 364 364
326 326 327 329 330 335 335 336 337 338 339 348 352 349 351 358 361 362 363 365 366 367 368 365 365 363 364 367 365 364 363 361 363
322 322 322 323 323 327 332 335 335 336 341 340 347 346 346 349 347 361 363 366 367 366 366 366 366 365 364 365 364 360 363 363 362
320 320 320 321 322 324 325 327 332 334 335 337 339 340 338 344 349 351 360 364 366 367 368 366 366 364 363 362 360 343 340 356 360
316 317 319 320 321 322 325 323 326 330 335 335 334 333 334 336 344 347 348 356 360 364 364 366 364 364 363 362 362 339 332 339 360
315 316 316 317 318 319 322 323 323 328 330 336 334 333 332 332 334 340 343 345 350 356 359 359 360 361 362 362 362 338 333 334 353
313 314 315 316 317 318 321 321 324 327 329 329 332 331 331 331 333 331 338 342 344 347 351 354 358 358 360 361 361 334 331 333 351
313 313 314 314 315 316 318 320 321 323 325 328 327 329 331 334 334 332 331 335 339 346 350 353 355 355 360 351 361 338 327 330 352
313 313 313 314 315 315 318 320 321 321 323 323 326 328 332 332 334 335 338 339 340 343 342 347 354 353 356 358 357 358 325 323 355
311 311 312 313 313 314 316 319 321 321 321 325 327 328 327 332 334 331 329 335 335 337 340 342 347 350 350 353 356 339 335 320 322
309 310 310 312 313 314 316 317 317 314 319 321 323 324 327 327 332 333 332 332 330 332 336 340 339 341 347 351 355 355 327 325 322
308 309 309 310 310 310 311 314 315 317 319 320 321 321 324 326 326 329 331 328 327 325 325 328 333 331 333 340 339 345 336 339 342
308 308 309 309 308 308 309 311 312 313 314 316 314 317 320 323 323 325 328 329 326 326 330 322 323 324 327 327 329 337 318 317 329
307 307 308 307 307 306 307 308 309 312 311 314 311 311 315 317 318 321 323 324 325 316 308 307 304 303 311 326 316 310 304 301 302
307 307 306 306 306 306 306 306 307 310 312 310 310 309 310 313 313 315 316 318 321 321 320 310 303 301 302 302 309 304 300 299 300

GFSFLT1_sfc_thetae_102.txt.gz
Theta_e
332 333 337 334 334 336 338 340 342 347 346 342 345 348 346 349 344 342 343 344 342 343 345 346 350 351 352 350 349 350 349 349 348
332 332 335 335 337 340 342 342 341 343 347 345 345 349 348 349 347 343 343 343 344 343 347 349 350 350 351 352 351 351 349 346 344
330 328 333 336 337 338 340 340 341 343 346 345 344 348 350 350 350 347 344 342 342 347 348 350 350 345 348 350 352 351 348 346 346
327 327 329 332 334 340 339 341 340 342 340 347 346 346 349 350 351 352 350 350 349 347 347 348 348 347 346 349 350 349 348 346 346
329 330 332 335 333 334 340 337 338 339 340 342 345 346 347 346 347 352 350 350 352 351 346 345 345 344 346 348 349 349 348 345 349
328 328 328 330 332 333 335 337 336 338 340 340 345 344 343 341 341 346 347 350 351 351 348 345 344 341 343 345 348 350 350 349 348
323 326 326 326 327 329 331 335 339 337 340 345 343 344 342 340 340 344 343 346 347 349 351 347 346 345 344 342 343 349 351 351 350
316 317 319 320 320 324 328 330 333 335 336 337 343 340 341 341 343 345 341 341 344 349 350 352 349 349 349 350 350 352 350 351 349
313 314 315 314 316 318 319 325 329 330 330 331 335 334 337 345 344 341 340 341 341 345 348 351 351 350 352 350 354 345 340 348 349
312 311 310 311 313 313 317 317 323 326 327 328 327 328 331 335 340 341 343 342 343 344 343 343 345 350 349 348 351 338 335 338 349
308 308 308 307 309 312 313 315 318 321 322 322 324 325 326 329 329 332 336 337 339 341 344 344 345 346 346 348 352 337 332 335 340
306 306 306 306 311 310 310 312 316 317 316 317 318 318 319 324 325 326 330 331 331 336 339 340 343 347 346 344 345 332 328 332 340
306 307 308 309 310 311 311 311 312 310 310 312 312 314 316 318 320 322 322 324 328 330 330 335 340 340 346 342 346 332 325 328 342
307 307 308 309 308 307 307 308 308 306 308 308 311 314 315 316 318 318 321 320 321 319 320 325 328 333 342 341 338 341 323 322 339
306 306 307 307 306 305 306 307 306 305 306 308 309 310 311 313 315 317 320 319 320 317 317 316 320 329 326 335 337 321 318 317 319
303 303 303 304 302 302 303 304 304 303 305 306 306 306 307 309 312 312 313 314 316 317 316 313 315 314 315 317 327 334 321 319 319
301 302 301 301 301 300 299 301 303 303 303 305 304 303 304 306 306 307 308 311 312 311 311 312 312 311 309 310 314 318 323 331 328
300 300 300 300 298 298 298 299 300 302 302 302 300 300 301 301 302 302 305 307 307 309 309 305 306 309 309 310 311 312 312 314 319
299 299 299 298 298 298 298 299 299 300 300 300 298 297 298 299 299 301 302 303 304 305 304 304 301 300 301 309 305 303 300 299 297
302 299 299 298 297 297 298 297 297 299 300 298 297 295 296 297 299 299 298 299 300 300 304 303 303 301 300 301 298 299 298 296 295

GFSFLT1_sfc_thetae_105.txt.gz
Theta_e
333 333 332 332 334 336 337 341 343 342 340 337 340 343 345 345 342 341 342 343 341 341 344 345 348 349 348 347 347 347 347 345 346
332 332 334 334 335 336 340 341 340 345 343 339 341 343 344 345 343 341 340 343 342 340 343 346 347 350 350 349 347 348 347 345 344
328 332 334 335 338 338 339 341 341 341 344 341 342 344 345 346 347 344 342 342 341 343 343 346 348 348 349 347 348 348 346 344 343
328 331 332 334 337 338 338 340 340 339 337 343 342 344 345 346 347 347 345 343 342 342 345 345 346 346 343 346 348 348 347 344 344
328 327 328 331 334 338 338 337 338 338 339 340 341 343 343 343 344 344 345 345 346 350 345 346 347 346 344 344 347 348 346 345 346
328 330 332 331 331 333 334 335 335 334 337 339 341 342 339 338 341 341 342 344 346 347 346 343 343 343 343 343 346 347 347 347 345
325 325 326 328 329 331 334 333 333 334 338 340 341 341 338 338 339 339 338 340 343 347 348 344 342 342 341 341 344 346 348 348 347
320 320 320 322 323 327 329 331 333 334 335 340 341 339 337 339 339 341 341 340 339 342 345 348 346 345 344 343 343 344 344 348 348
313 314 315 316 319 322 324 326 327 328 328 332 340 339 339 341 343 341 339 339 339 339 342 343 346 349 347 347 349 340 337 345 348
311 312 312 313 315 316 318 322 324 323 324 328 329 329 329 331 340 340 341 341 338 338 342 343 343 344 345 348 349 336 334 339 348
309 309 309 310 312 314 316 319 319 320 320 320 321 322 324 327 328 331 334 335 337 339 341 339 343 344 343 346 348 332 327 333 341
305 307 308 308 309 310 312 311 312 312 312 314 315 315 317 320 323 325 326 325 328 328 330 335 337 339 340 343 346 330 325 327 340
307 309 310 310 310 310 308 307 309 309 308 309 309 312 314 316 318 320 321 322 324 326 326 327 332 335 339 336 340 328 322 325 339
307 308 307 307 307 305 305 306 307 305 305 305 307 309 311 313 314 316 317 317 319 318 319 318 326 328 332 336 331 334 319 319 336
307 305 305 305 303 303 303 304 305 303 303 305 305 306 307 308 309 311 312 314 313 316 314 314 314 315 316 318 324 321 321 316 319
304 305 304 304 302 301 301 302 302 300 301 303 303 303 302 303 305 306 308 308 308 310 310 310 309 310 309 311 315 317 314 316 318
301 301 301 300 299 299 298 299 301 300 300 300 299 299 299 300 300 302 304 306 307 306 305 305 306 307 307 307 309 311 309 310 313
300 299 298 298 297 297 296 298 299 300 299 299 297 297 297 297 298 298 299 300 302 304 303 302 302 304 304 305 305 305 301 299 302
299 298 297 296 296 296 296 297 297 298 298 297 295 295 295 296 296 296 297 297 298 302 302 301 299 298 300 304 303 298 298 297 297
300 297 297 296 296 297 296 296 297 298 297 296 294 293 294 293 294 294 294 295 296 295 298 300 299 297 297 297 297 297 296 295 296

GFSFLT1_sfc_thetae_108.txt.gz
Theta_e
325 328 331 332 336 336 336 341 342 342 340 339 342 345 346 345 343 342 344 346 346 345 348 349 352 353 352 352 350 351 349 349 351
327 328 331 333 336 338 338 341 342 341 339 339 340 343 345 346 343 344 344 346 347 344 347 349 351 353 353 353 352 352 352 351 351
329 330 331 333 335 338 341 341 343 345 343 341 342 343 345 347 344 345 344 345 345 345 346 348 350 351 353 353 352 352 352 351 349
330 331 332 332 334 337 340 341 340 340 341 343 344 345 346 348 349 346 344 345 345 345 345 348 347 350 350 350 349 351 351 350 350
329 331 334 336 336 337 339 339 339 337 339 342 341 341 345 346 347 348 349 349 348 348 348 348 347 349 349 347 350 352 351 350 351
327 328 330 332 335 337 337 337 337 337 338 340 344 341 339 341 342 343 345 346 348 350 350 350 348 348 348 347 348 350 352 351 351
327 328 328 329 331 334 334 334 334 336 338 341 341 342 339 340 341 341 341 342 343 345 349 350 348 347 346 347 348 349 351 351 351
324 323 323 326 328 330 333 334 335 336 338 340 340 340 338 339 341 343 342 341 341 343 345 348 351 349 348 347 345 345 347 351 352
318 318 319 320 323 326 326 327 326 328 330 334 341 338 335 338 344 342 341 341 341 341 342 346 347 348 350 349 348 338 335 344 348
314 314 316 317 318 320 320 320 321 320 323 325 325 326 328 329 334 340 342 343 340 340 343 345 346 347 348 348 351 332 330 335 348
310 312 313 315 316 317 317 317 317 318 319 320 320 321 323 324 327 328 329 330 330 333 338 340 341 342 343 346 348 326 325 330 343
309 308 309 313 316 314 313 313 316 314 313 314 315 316 318 320 323 324 325 325 325 325 328 332 334 338 341 343 340 321 323 329 345
309 310 312 311 310 309 309 309 310 309 308 309 310 312 314 316 318 319 319 322 323 324 326 327 334 336 337 330 336 323 318 329 342
310 308 307 308 307 307 307 308 307 305 306 306 308 310 311 311 312 314 315 316 318 318 318 320 319 320 322 323 321 320 312 316 334
305 305 305 305 304 303 304 306 306 304 303 305 307 307 307 308 308 310 311 312 313 313 313 313 314 314 314 316 318 311 310 310 312
305 304 303 304 303 302 303 303 304 302 303 304 303 303 303 304 306 306 307 309 310 308 308 309 309 310 310 311 312 311 308 308 310
302 302 302 302 301 300 300 303 302 302 302 302 301 301 301 301 302 302 302 304 306 305 304 305 306 307 306 308 308 306 305 306 310
301 301 300 300 300 300 299 301 301 301 301 301 299 298 299 298 299 299 299 301 302 304 304 302 304 302 303 303 303 301 299 298 302
301 300 299 298 298 299 299 299 300 300 300 299 298 297 297 297 297 297 297 297 298 300 300 299 297 296 299 303 299 297 296 294 294
301 299 299 298 298 299 299 299 300 300 299 298 297 296 295 295 295 295 295 295 295 294 297 298 296 295 296 296 295 294 294 294 294

GFSFLT1_sfc_thetae_111.txt.gz
Theta_e
332 334 335 338 341 343 342 345 344 349 350 352 353 353 355 356 357 354 354 357 355 353 356 366 361 364 361 360 361 360 360 357 359
331 332 335 337 341 342 344 346 346 349 350 351 352 353 357 356 357 355 354 355 358 356 358 359 360 360 362 362 362 362 362 356 359
331 334 335 338 341 341 343 346 345 351 351 352 352 353 356 357 358 357 357 356 356 355 356 357 360 359 360 362 362 362 362 360 360
333 333 335 339 339 340 342 345 345 347 351 352 351 352 354 355 356 357 357 356 357 356 357 358 358 359 359 359 360 361 361 361 360
333 334 336 338 338 342 344 342 342 346 350 351 353 354 355 355 358 358 357 357 358 357 355 357 360 357 358 359 359 361 360 358 358
332 334 335 337 337 338 341 340 340 339 346 349 351 353 354 355 355 357 357 358 359 360 360 360 359 360 359 359 358 358 358 359 359
330 332 333 335 338 339 340 339 337 339 339 342 344 346 347 350 351 352 353 356 357 358 361 361 360 360 360 359 357 358 357 357 359
328 327 329 332 334 335 336 337 339 338 340 343 345 345 345 346 350 350 350 350 352 352 355 357 361 360 360 359 357 355 356 357 357
323 324 327 329 331 331 331 331 332 334 335 341 345 342 341 342 347 346 348 347 348 348 350 354 358 358 359 359 356 336 335 345 355
319 321 322 322 321 321 322 324 326 325 326 330 331 333 339 339 336 345 348 348 348 346 349 352 353 354 356 357 356 327 329 334 354
318 318 319 319 318 318 318 319 320 322 322 322 324 326 331 331 329 330 334 338 340 343 346 347 348 348 352 345 333 322 323 329 358
318 319 320 318 317 317 317 316 317 316 317 320 322 321 326 328 329 329 329 330 329 331 335 337 344 346 344 341 328 317 319 338 352
317 321 317 314 314 314 313 313 314 313 315 316 317 321 322 323 324 327 326 327 328 332 335 335 334 333 329 320 322 312 312 330 338
319 321 317 313 314 314 315 316 316 315 314 314 317 319 319 320 322 321 322 321 323 325 325 327 326 325 324 322 315 313 309 311 329
316 314 314 315 314 313 314 315 315 313 312 314 316 317 317 317 318 318 319 321 319 320 320 321 322 323 321 320 320 308 308 308 310
312 314 313 313 312 311 311 313 313 311 311 313 313 314 313 313 314 315 316 316 315 315 315 316 315 316 317 317 316 313 306 307 308
308 309 309 311 311 310 309 310 310 310 310 311 311 310 309 310 310 311 312 312 312 311 311 313 310 309 308 310 310 307 307 308 311
309 308 310 309 309 309 308 309 309 309 309 310 308 307 306 306 307 307 308 308 308 309 306 305 307 306 307 307 303 298 298 298 302
307 309 309 309 309 309 308 308 308 307 308 308 307 305 304 303 304 304 304 305 303 298 299 297 295 295 299 303 296 295 294 293 294
306 307 307 307 308 309 308 308 306 306 307 307 306 304 303 301 302 302 302 302 302 301 299 297 295 294 294 293 292 293 292 292 293

GFSFLT1_sfc_thetae_114.txt.gz
Theta_e
337 337 336 337 342 345 345 349 352 352 356 357 358 358 359 362 362 355 354 357 362 354 357 354 361 360 360 363 364 363 365 360 358
332 336 336 338 342 345 349 350 352 353 356 358 358 357 360 360 361 360 363 359 359 357 361 356 359 359 360 361 361 364 365 357 360
331 335 336 340 342 346 349 345 353 353 357 358 358 357 359 356 359 360 362 364 362 362 363 363 362 361 359 361 361 363 364 360 362
333 335 336 340 344 348 351 351 351 353 355 356 355 355 357 356 357 358 361 360 362 363 365 365 363 364 362 361 360 362 362 362 360
336 339 338 341 346 347 349 350 349 348 352 354 356 357 358 359 358 359 357 358 360 362 362 364 364 364 364 360 360 362 360 358 357
336 337 341 342 342 340 342 346 348 347 348 351 354 357 356 358 356 357 357 359 358 360 362 362 363 365 363 363 364 363 361 361 359
335 338 340 338 339 339 343 345 343 345 348 351 353 356 356 358 358 358 357 359 361 362 364 361 361 361 362 362 361 363 362 361 361
334 334 336 338 337 339 341 340 340 340 343 343 345 348 350 353 356 358 360 360 361 361 361 360 362 361 361 362 361 359 362 361 360
329 333 334 335 338 340 342 342 339 339 340 341 343 344 345 348 353 353 354 355 356 358 359 360 361 360 360 360 357 336 338 349 360
326 326 327 325 325 325 329 335 339 337 337 343 345 343 344 346 349 347 350 351 353 352 354 356 357 359 360 358 353 323 327 337 359
323 324 324 324 323 323 322 324 327 330 331 333 336 340 341 345 345 337 336 345 349 352 352 354 355 355 354 347 332 317 320 330 360
326 326 323 321 319 319 320 320 323 324 325 326 328 329 334 339 338 331 332 334 338 343 348 348 348 345 342 339 327 313 316 333 360
323 322 320 319 320 317 315 315 317 317 319 322 324 328 333 336 337 337 336 335 338 341 342 342 337 331 327 321 324 311 312 324 347
320 320 318 319 318 316 315 315 316 315 316 316 320 325 327 329 332 333 334 335 338 339 337 337 335 331 328 323 322 314 310 312 329
323 318 315 316 317 315 317 318 318 318 318 321 322 324 324 325 328 329 329 330 330 332 333 331 331 330 327 326 325 309 308 309 310
323 324 323 323 319 318 321 321 322 320 320 321 322 322 323 323 325 326 328 327 327 326 327 326 326 323 324 324 322 320 309 308 310
321 320 319 319 318 317 316 318 318 319 318 319 319 319 319 320 320 321 323 322 323 324 325 323 323 319 317 317 313 308 308 309 313
318 318 317 318 316 316 316 316 316 316 316 317 316 315 315 316 315 317 316 313 311 313 306 305 318 316 316 314 311 302 297 296 302
314 316 316 316 315 315 315 315 314 314 315 315 314 313 312 311 312 312 313 310 307 297 298 296 294 294 300 304 295 294 294 293 293
313 311 312 313 314 315 314 314 313 313 314 313 312 313 310 308 308 310 309 309 308 304 298 296 294 293 293 293 292 293 293 292 293

GFSFLT1_sfc_thetae_117.txt.gz
Theta_e
332 333 336 336 339 344 344 347 346 349 355 357 358 357 359 361 361 355 354 358 362 352 351 353 364 362 362 364 362 363 365 361 358
332 334 333 335 339 343 343 347 349 349 356 358 357 357 363 360 360 359 356 361 361 357 362 356 360 360 360 362 362 363 366 359 360
335 338 338 335 339 340 348 348 349 351 356 357 357 357 359 358 359 359 359 360 359 363 366 363 364 360 359 361 362 362 366 364 363
336 336 336 340 339 347 345 351 353 353 355 357 356 355 357 357 356 357 359 357 358 361 364 366 364 363 362 360 361 362 363 365 364
338 339 338 339 342 343 349 352 352 349 357 356 356 355 359 357 357 357 355 355 359 361 362 371 365 363 363 362 361 364 362 358 356
335 337 339 339 342 347 350 353 354 354 354 353 356 360 357 358 357 357 356 356 359 361 362 363 366 367 364 364 362 363 362 362 360
336 339 341 343 344 351 350 350 352 350 349 352 355 354 359 360 359 359 357 357 359 359 362 362 366 364 364 362 362 361 360 361 361
337 338 342 342 341 344 346 344 348 348 349 345 343 347 353 357 360 362 361 360 361 360 361 360 365 361 361 361 359 354 361 363 361
335 336 337 341 344 338 341 342 343 344 344 344 343 342 346 353 356 357 358 360 360 361 362 361 364 362 359 360 353 326 331 347 358
333 332 333 338 339 341 342 344 345 343 344 345 339 344 346 349 350 352 355 355 357 356 357 360 359 359 359 353 342 321 326 335 358
326 327 326 327 327 328 335 341 340 340 342 345 344 345 345 346 348 347 348 351 352 353 357 355 357 357 357 345 331 317 319 329 357
332 330 325 323 323 322 323 324 330 335 336 340 342 339 343 344 346 345 343 335 335 339 347 345 344 342 343 339 327 314 317 328 361
328 328 324 320 319 320 320 320 323 324 325 328 329 333 338 341 340 338 336 332 337 343 344 341 339 337 334 324 325 311 312 324 352
329 328 325 323 321 317 317 319 319 317 319 318 324 328 332 338 340 340 340 341 341 340 339 339 334 333 331 328 323 315 310 311 331
327 326 323 323 321 320 322 321 319 317 316 319 322 325 328 331 332 332 334 338 339 342 340 337 336 335 330 328 323 312 310 309 311
325 324 323 323 322 320 321 321 322 318 321 323 323 322 323 328 329 332 332 332 334 332 335 333 333 331 329 327 325 323 311 309 311
324 323 321 320 319 318 318 322 322 321 323 325 324 324 324 323 326 327 328 328 329 329 327 327 328 327 328 325 321 315 310 308 312
323 324 323 322 321 319 319 320 320 320 320 322 321 320 320 320 319 322 320 312 306 316 305 301 318 318 322 317 319 306 297 297 304
323 322 321 320 320 319 318 319 318 319 320 320 319 317 316 316 316 318 316 314 308 298 297 295 294 294 302 303 296 295 294 293 294
318 321 320 319 318 317 317 316 315 317 318 318 317 316 315 313 310 313 314 313 311 305 298 296 294 294 294 294 293 294 293 293 294